Ainsworth, NE

6:06 AM CST on November 24, 2017 (GMT -0600)
Ainsworth Municipal

Weather History for KANW - June, 2013

Change the Weather History Date:

Friday, June 28, 2013

  Actual Average Record
Temperature  
Mean Temperature 72 °F -  
Max Temperature 84 °F 80 °F 100 °F (2002)
Min Temperature 61 °F 57 °F 42 °F (2004)
Cooling Degree Days 7    
Growing Degree Days 22 (Base 50)    
Moisture  
Dew Point 51 °F    
Average Humidity 48    
Maximum Humidity 76    
Minimum Humidity 25    
Precipitation  
Precipitation 0.00 in - - ()
Sea Level Pressure  
Sea Level Pressure 30.13 in    
Wind  
Wind Speed 9 mph (NNW)    
Max Wind Speed 22 mph    
Max Gust Speed 29 mph    
Visibility 10 miles    
Events      
Averages and records for this station are not official NWS values.
T = Trace of Precipitation, MM = Missing Value Source: NWS Daily Summary

Daily Weather History Graph

Daily Weather History Graph

Search for Another Location

Airport or City:

Trip Planner

Search our weather history database for the weather conditions in past years. The results will help you decide how hot, cold, wet, or windy it might be!

Date:

Astronomy

Jun. 28, 2013 Rise Set
Actual Time 6:04 AM CDT 9:21 PM CDT
Civil Twilight 5:29 AM CDT 9:56 PM CDT
Nautical Twilight 4:44 AM CDT 10:41 PM CDT
Astronomical Twilight 3:49 AM CDT 11:36 PM CDT
Moon 12:12 AM CDT (6/28) 12:22 PM CDT (6/28)
Length of Visible Light 16h 26m
Length of Day
15h 16m
Waning Gibbous, 66% of the Moon is Illuminated
Jun 28
Waning Gibbous
Jun 29
Last Quarter
Jul 8
New
Jul 15
First Quarter
Jul 22
Full

Hourly Weather History & Observations

Time (CDT) Temp. Dew Point Humidity Pressure Visibility Wind Dir Wind Speed Gust Speed Precip Events Conditions
12:15 AM 73.4 °F 60.8 °F 65% 30.12 in 10.0 mi Calm Calm - N/A   Clear
12:35 AM 72.3 °F 60.3 °F 66% 30.14 in 10.0 mi NNW 4.6 mph - N/A   Clear
12:55 AM 70.3 °F 60.6 °F 71% 30.14 in 10.0 mi NNW 5.8 mph - N/A   Clear
1:35 AM 70.7 °F 59.9 °F 69% 30.15 in 10.0 mi Calm Calm - N/A   Clear
1:55 AM 69.8 °F 60.1 °F 71% 30.15 in 10.0 mi NW 3.5 mph - N/A   Clear
2:15 AM 68.9 °F 59.0 °F 71% 30.15 in 10.0 mi North 3.5 mph - N/A   Clear
2:35 AM 68.4 °F 58.6 °F 71% 30.15 in 10.0 mi Calm Calm - N/A   Clear
2:55 AM 67.1 °F 57.9 °F 72% 30.16 in 10.0 mi WNW 4.6 mph - N/A   Clear
3:15 AM 65.3 °F 57.2 °F 75% 30.16 in 10.0 mi West 5.8 mph - N/A   Clear
3:35 AM 66.2 °F 56.3 °F 70% 30.16 in 10.0 mi WNW 6.9 mph - N/A   Clear
3:55 AM 63.9 °F 56.3 °F 76% 30.16 in 10.0 mi WNW 6.9 mph - N/A   Clear
4:15 AM 63.5 °F 55.8 °F 76% 30.16 in 10.0 mi WNW 5.8 mph - N/A   Clear
4:35 AM 64.0 °F 55.0 °F 73% 30.15 in 10.0 mi WNW 5.8 mph - N/A   Clear
4:55 AM 62.8 °F 55.2 °F 76% 30.15 in 10.0 mi WNW 5.8 mph - N/A   Clear
5:15 AM 63.0 °F 54.7 °F 74% 30.15 in 10.0 mi NW 6.9 mph - N/A   Clear
5:35 AM 64.4 °F 53.2 °F 67% 30.15 in 10.0 mi NW 8.1 mph - N/A   Clear
5:55 AM 62.6 °F 53.6 °F 72% 30.15 in 10.0 mi WNW 6.9 mph - N/A   Clear
6:15 AM 62.1 °F 53.4 °F 73% 30.15 in 10.0 mi WNW 5.8 mph - N/A   Clear
6:35 AM 61.7 °F 53.2 °F 74% 30.16 in 10.0 mi WNW 5.8 mph - N/A   Clear
6:55 AM 63.1 °F 53.2 °F 70% 30.16 in 10.0 mi WNW 6.9 mph - N/A   Clear
7:55 AM 67.3 °F 54.3 °F 63% 30.17 in 10.0 mi NNW 9.2 mph - N/A   Clear
8:15 AM 69.1 °F 53.6 °F 58% 30.17 in 10.0 mi NNW 10.4 mph - N/A   Clear
8:35 AM 71.1 °F 52.7 °F 52% 30.17 in 10.0 mi NNW 12.7 mph - N/A   Clear
8:55 AM 72.7 °F 53.1 °F 50% 30.17 in 10.0 mi North 12.7 mph - N/A   Clear
9:15 AM 74.1 °F 51.8 °F 46% 30.17 in 10.0 mi North 13.8 mph - N/A   Clear
9:35 AM 75.2 °F 50.4 °F 42% 30.17 in 10.0 mi NNW 16.1 mph 20.7 mph N/A   Clear
9:55 AM 76.1 °F 49.1 °F 39% 30.17 in 10.0 mi NNW 17.3 mph 23.0 mph N/A   Clear
10:15 AM 76.8 °F 48.4 °F 37% 30.17 in 10.0 mi NNW 17.3 mph - N/A   Clear
10:35 AM 77.4 °F 48.6 °F 36% 30.16 in 10.0 mi North 17.3 mph 23.0 mph N/A   Clear
10:55 AM 77.9 °F 47.8 °F 35% 30.16 in 10.0 mi North 18.4 mph - N/A   Clear
11:15 AM 79.2 °F 49.1 °F 35% 30.16 in 10.0 mi NNW 17.3 mph 21.9 mph N/A   Clear
11:35 AM 79.3 °F 47.8 °F 33% 30.16 in 10.0 mi NNW 13.8 mph 20.7 mph N/A   Clear
11:55 AM 79.7 °F 46.8 °F 31% 30.16 in 10.0 mi NNW 16.1 mph 26.5 mph N/A   Clear
12:15 PM 80.4 °F 48.0 °F 32% 30.16 in 10.0 mi NNW 21.9 mph 28.8 mph N/A   Clear
12:35 PM 80.6 °F 45.5 °F 29% 30.16 in 10.0 mi NNW 19.6 mph 26.5 mph N/A   Clear
12:55 PM 80.6 °F 46.0 °F 30% 30.16 in 10.0 mi NNW 18.4 mph 27.6 mph N/A   Clear
1:15 PM 81.7 °F 44.8 °F 27% 30.15 in 10.0 mi NNW 17.3 mph 25.3 mph N/A   Clear
1:35 PM 81.7 °F 45.7 °F 28% 30.15 in 10.0 mi NNW 18.4 mph 27.6 mph N/A   Clear
1:55 PM 81.9 °F 43.0 °F 25% 30.14 in 10.0 mi NW 17.3 mph 28.8 mph N/A   Clear
2:15 PM 82.6 °F 43.5 °F 25% 30.14 in 10.0 mi NNW 20.7 mph 25.3 mph N/A   Clear
2:35 PM 82.4 °F 45.1 °F 27% 30.13 in 10.0 mi North 18.4 mph 24.2 mph N/A   Clear
2:55 PM 83.1 °F 44.1 °F 25% 30.13 in 10.0 mi NNW 15.0 mph 25.3 mph N/A   Clear
3:15 PM 82.8 °F 46.6 °F 28% 30.12 in 10.0 mi NNW 20.7 mph 25.3 mph N/A   Clear
3:35 PM 83.1 °F 46.2 °F 27% 30.12 in 10.0 mi North 17.3 mph 25.3 mph N/A   Clear
3:55 PM 83.3 °F 46.4 °F 27% 30.11 in 10.0 mi NNW 15.0 mph 24.2 mph N/A   Clear
4:15 PM 83.1 °F 45.5 °F 27% 30.11 in 10.0 mi North 18.4 mph 25.3 mph N/A   Clear
4:35 PM 83.1 °F 45.9 °F 27% 30.10 in 10.0 mi North 12.7 mph 24.2 mph N/A   Clear
4:55 PM 83.3 °F 46.8 °F 28% 30.10 in 10.0 mi North 16.1 mph 23.0 mph N/A   Clear
5:15 PM 83.3 °F 46.6 °F 28% 30.10 in 10.0 mi NNW 16.1 mph 20.7 mph N/A   Clear
5:35 PM 83.3 °F 46.2 °F 27% 30.10 in 10.0 mi NNW 17.3 mph 26.5 mph N/A   Clear
5:55 PM 83.7 °F 46.2 °F 27% 30.09 in 10.0 mi NNW 19.6 mph 28.8 mph N/A   Clear
6:15 PM 83.3 °F 45.9 °F 27% 30.08 in 10.0 mi North 18.4 mph 26.5 mph N/A   Clear
6:35 PM 83.3 °F 45.3 °F 26% 30.08 in 10.0 mi NNW 16.1 mph 25.3 mph N/A   Clear
6:55 PM 82.8 °F 48.0 °F 30% 30.08 in 10.0 mi North 13.8 mph 19.6 mph N/A   Clear
7:15 PM 82.4 °F 47.5 °F 29% 30.07 in 10.0 mi North 16.1 mph 25.3 mph N/A   Clear
7:35 PM 81.3 °F 49.8 °F 33% 30.08 in 10.0 mi NNE 16.1 mph 20.7 mph N/A   Clear
7:55 PM 79.9 °F 51.8 °F 38% 30.08 in 10.0 mi NNE 10.4 mph - N/A   Clear
8:15 PM 79.0 °F 50.2 °F 36% 30.08 in 10.0 mi NNE 13.8 mph 19.6 mph N/A   Clear
8:35 PM 78.1 °F 50.0 °F 37% 30.09 in 10.0 mi NNE 12.7 mph 18.4 mph N/A   Clear
8:55 PM 75.6 °F 51.8 °F 43% 30.09 in 10.0 mi North 8.1 mph - N/A   Clear
9:15 PM 73.6 °F 51.8 °F 46% 30.10 in 10.0 mi North 8.1 mph - N/A   Clear
9:35 PM 69.6 °F 53.6 °F 57% 30.10 in 10.0 mi North 6.9 mph - N/A   Clear
9:55 PM 69.4 °F 53.4 °F 57% 30.10 in 10.0 mi North 5.8 mph - N/A   Clear
10:15 PM 69.3 °F 53.1 °F 56% 30.10 in 10.0 mi NNW 5.8 mph - N/A   Clear
10:35 PM 70.3 °F 52.9 °F 54% 30.11 in 10.0 mi NNW 5.8 mph - N/A   Clear
10:55 PM 69.1 °F 53.1 °F 57% 30.11 in 10.0 mi NW 3.5 mph - N/A   Clear
11:15 PM 70.0 °F 52.7 °F 54% 30.10 in 10.0 mi NW 4.6 mph - N/A   Clear
11:35 PM 69.1 °F 52.7 °F 56% 30.10 in 10.0 mi NW 4.6 mph - N/A   Clear
11:55 PM 67.5 °F 52.9 °F 59% 30.10 in 10.0 mi NW 4.6 mph - N/A   Clear